When you browse on this site, cookies collect data to enhance your experience and personalize the content and advertising you see.
Visit our Privacy Policy to learn more. By continuing to use the site, you agree to this use of cookies and data.
  • In Hungary
  • List of Countries
  • For 7 days
  • Water Temperature
  • Weather Map
  • News
  • Weather Widgets
  • user-avatar
    Login

    Hourly Weather Cacem

    Today, 15 November, Friday

    Time Temperature Precipitation Wind Pressure Humidity
    00:00 +8°C° 0.2 mm 9 mps 746 mmHg 70%
    01:00 +8°C° 0.2 mm 9 mps 745 mmHg 71%
    02:00 +8°C° 0.2 mm 9 mps 745 mmHg 71%
    03:00 +7°C° 0.4 mm 9 mps 745 mmHg 70%
    04:00 +7°C° 0.4 mm 9 mps 745 mmHg 70%
    05:00 +7°C° 0.4 mm 9 mps 745 mmHg 69%
    06:00 +7°C° 0.1 mm 10 mps 745 mmHg 67%
    07:00 +8°C° 0.1 mm 10 mps 746 mmHg 65%
    08:00 +8°C° 0.1 mm 10 mps 746 mmHg 63%
    09:00 +9°C° 0.1 mm 10 mps 746 mmHg 59%
    10:00 +9°C° 0.1 mm 10 mps 746 mmHg 56%
    11:00 +11°C° 0.1 mm 10 mps 746 mmHg 53%
    12:00 +11°C° 0.1 mm 10 mps 746 mmHg 53%
    13:00 +11°C° 0.1 mm 10 mps 745 mmHg 54%
    14:00 +11°C° 0.1 mm 10 mps 745 mmHg 54%
    15:00 +9°C° 0.1 mm 10 mps 745 mmHg 57%
    16:00 +8°C° 0.1 mm 9 mps 745 mmHg 60%
    17:00 +7°C° 0.1 mm 9 mps 745 mmHg 63%
    18:00 +7°C° 0.1 mm 9 mps 746 mmHg 62%
    19:00 +7°C° 0.1 mm 9 mps 746 mmHg 62%
    20:00 +7°C° 0.1 mm 9 mps 746 mmHg 62%
    21:00 +7°C° 0.1 mm 9 mps 746 mmHg 62%
    22:00 +6°C° 0.1 mm 9 mps 747 mmHg 63%
    23:00 +6°C° 0.1 mm 9 mps 747 mmHg 64%

    Tomorrow, 16 November, Saturday

    Time Temperature Precipitation Wind Pressure Humidity
    00:00 +6°C° 0 mm 9 mps 747 mmHg 65%
    01:00 +6°C° 0 mm 9 mps 747 mmHg 67%
    02:00 +6°C° 0 mm 8 mps 747 mmHg 68%
    03:00 +6°C° 0 mm 8 mps 747 mmHg 70%
    04:00 +6°C° 0 mm 7 mps 748 mmHg 71%
    05:00 +6°C° 0 mm 7 mps 748 mmHg 72%
    06:00 +8°C° 0 mm 7 mps 749 mmHg 70%
    07:00 +8°C° 0 mm 6 mps 749 mmHg 68%
    08:00 +9°C° 0 mm 6 mps 750 mmHg 65%
    09:00 +10°C° 0 mm 6 mps 750 mmHg 61%
    10:00 +11°C° 0 mm 6 mps 751 mmHg 57%
    11:00 +13°C° 0 mm 6 mps 751 mmHg 53%
    12:00 +13°C° 0 mm 6 mps 751 mmHg 53%
    13:00 +13°C° 0 mm 6 mps 750 mmHg 53%
    14:00 +13°C° 0 mm 6 mps 750 mmHg 53%
    15:00 +11°C° 0 mm 6 mps 750 mmHg 56%
    16:00 +10°C° 0 mm 5 mps 750 mmHg 59%
    17:00 +9°C° 0 mm 5 mps 751 mmHg 62%
    18:00 +10°C° 0 mm 4 mps 751 mmHg 64%
    19:00 +10°C° 0 mm 4 mps 751 mmHg 66%
    20:00 +10°C° 0 mm 4 mps 751 mmHg 68%
    21:00 +10°C° 0 mm 4 mps 751 mmHg 69%
    22:00 +11°C° 0 mm 4 mps 750 mmHg 70%
    23:00 +12°C° 0 mm 5 mps 750 mmHg 72%

    Day after tomorrow, 17 November, Sunday

    Time Temperature Precipitation Wind Pressure Humidity
    00:00 +11°C° 0 mm 6 mps 750 mmHg 76%
    01:00 +12°C° 0 mm 7 mps 749 mmHg 80%
    02:00 +13°C° 0 mm 8 mps 749 mmHg 84%
    03:00 +13°C° 0.4 mm 8 mps 749 mmHg 85%
    04:00 +13°C° 0.4 mm 8 mps 748 mmHg 86%
    05:00 +14°C° 0.4 mm 7 mps 748 mmHg 87%
    06:00 +14°C° 0.8 mm 7 mps 748 mmHg 87%
    07:00 +14°C° 0.8 mm 6 mps 748 mmHg 87%
    08:00 +14°C° 0.8 mm 6 mps 749 mmHg 87%
    09:00 +14°C° 0.7 mm 6 mps 748 mmHg 86%
    10:00 +15°C° 0.7 mm 6 mps 748 mmHg 85%
    11:00 +15°C° 0.7 mm 7 mps 748 mmHg 84%
    12:00 +15°C° 0.4 mm 7 mps 748 mmHg 81%
    13:00 +16°C° 0.4 mm 7 mps 747 mmHg 78%
    14:00 +16°C° 0.4 mm 7 mps 747 mmHg 75%
    15:00 +15°C° 0.2 mm 7 mps 747 mmHg 79%
    16:00 +15°C° 0.2 mm 8 mps 747 mmHg 83%
    17:00 +13°C° 0.2 mm 8 mps 747 mmHg 87%
    18:00 +12°C° 0 mm 7 mps 748 mmHg 85%
    19:00 +11°C° 0 mm 6 mps 748 mmHg 83%
    20:00 +10°C° 0 mm 6 mps 749 mmHg 81%
    21:00 +10°C° 0 mm 5 mps 749 mmHg 81%
    22:00 +9°C° 0 mm 5 mps 749 mmHg 81%
    23:00 +10°C° 0 mm 4 mps 749 mmHg 81%

    18 November, Monday

    Time Temperature Precipitation Wind Pressure Humidity
    00:00 +10°C° 0 mm 4 mps 749 mmHg 83%
    01:00 +9°C° 0 mm 5 mps 749 mmHg 85%
    02:00 +9°C° 0 mm 5 mps 749 mmHg 86%
    03:00 +9°C° 0 mm 5 mps 749 mmHg 87%
    04:00 +10°C° 0 mm 4 mps 750 mmHg 87%
    05:00 +8°C° 0 mm 4 mps 750 mmHg 88%
    06:00 +10°C° 0 mm 3 mps 750 mmHg 84%
    07:00 +11°C° 0 mm 3 mps 750 mmHg 80%
    08:00 +11°C° 0 mm 3 mps 751 mmHg 77%
    09:00 +12°C° 0 mm 3 mps 751 mmHg 71%
    10:00 +14°C° 0 mm 3 mps 751 mmHg 66%
    11:00 +16°C° 0 mm 3 mps 751 mmHg 60%
    12:00 +14°C° 0 mm 3 mps 750 mmHg 61%
    13:00 +14°C° 0 mm 3 mps 750 mmHg 62%
    14:00 +14°C° 0 mm 4 mps 749 mmHg 63%
    15:00 +13°C° 0 mm 4 mps 750 mmHg 65%
    16:00 +12°C° 0 mm 3 mps 750 mmHg 66%
    17:00 +11°C° 0 mm 3 mps 750 mmHg 68%
    18:00 +11°C° 0 mm 3 mps 750 mmHg 68%
    19:00 +12°C° 0 mm 2 mps 750 mmHg 69%
    20:00 +11°C° 0 mm 1 mps 750 mmHg 69%
    21:00 +10°C° 0 mm 2 mps 750 mmHg 69%
    22:00 +10°C° 0 mm 2 mps 750 mmHg 69%
    23:00 +12°C° 0 mm 2 mps 749 mmHg 69%

    19 November, Tuesday

    Time Temperature Precipitation Wind Pressure Humidity
    00:00 +11°C° 0 mm 3 mps 749 mmHg 70%
    01:00 +11°C° 0 mm 4 mps 748 mmHg 72%
    02:00 +11°C° 0 mm 4 mps 748 mmHg 73%
    03:00 +10°C° 0.4 mm 5 mps 748 mmHg 77%
    04:00 +11°C° 0.4 mm 6 mps 747 mmHg 81%
    05:00 +11°C° 0.4 mm 7 mps 747 mmHg 85%
    06:00 +11°C° 0.9 mm 7 mps 746 mmHg 86%
    07:00 +12°C° 0.9 mm 8 mps 746 mmHg 87%
    08:00 +12°C° 0.9 mm 9 mps 746 mmHg 89%
    09:00 +13°C° 0.8 mm 8 mps 746 mmHg 89%
    10:00 +14°C° 0.8 mm 7 mps 746 mmHg 89%
    11:00 +15°C° 0.8 mm 6 mps 746 mmHg 89%
    12:00 +15°C° 0.3 mm 5 mps 746 mmHg 87%
    13:00 +15°C° 0.3 mm 4 mps 745 mmHg 85%
    14:00 +16°C° 0.3 mm 3 mps 745 mmHg 83%
    15:00 +14°C° 0 mm 3 mps 745 mmHg 83%
    16:00 +15°C° 0 mm 2 mps 745 mmHg 84%
    17:00 +14°C° 0 mm 2 mps 745 mmHg 84%
    18:00 +13°C° 0 mm 2 mps 745 mmHg 84%
    19:00 +13°C° 0 mm 1 mps 745 mmHg 84%
    20:00 +11°C° 0 mm 0 mps 745 mmHg 84%
    21:00 +12°C° 0 mm 1 mps 745 mmHg 85%
    22:00 +12°C° 0 mm 2 mps 745 mmHg 85%
    23:00 +12°C° 0 mm 2 mps 745 mmHg 86%

    20 November, Wednesday

    Time Temperature Precipitation Wind Pressure Humidity
    00:00 +11°C° 0.2 mm 3 mps 744 mmHg 88%
    01:00 +11°C° 0.2 mm 3 mps 744 mmHg 90%
    02:00 +12°C° 0.2 mm 4 mps 743 mmHg 92%
    03:00 +12°C° 0.1 mm 4 mps 743 mmHg 90%
    04:00 +12°C° 0.1 mm 4 mps 743 mmHg 88%
    05:00 +12°C° 0.1 mm 4 mps 743 mmHg 86%
    06:00 +12°C° 0 mm 5 mps 742 mmHg 84%
    07:00 +13°C° 0 mm 5 mps 742 mmHg 81%
    08:00 +14°C° 0 mm 6 mps 742 mmHg 79%
    09:00 +14°C° 0.1 mm 6 mps 742 mmHg 76%
    10:00 +15°C° 0.1 mm 7 mps 742 mmHg 73%
    11:00 +16°C° 0.1 mm 8 mps 742 mmHg 69%
    12:00 +16°C° 0.1 mm 8 mps 741 mmHg 72%
    13:00 +16°C° 0.1 mm 8 mps 740 mmHg 75%
    14:00 +15°C° 0.1 mm 8 mps 740 mmHg 77%
    15:00 +15°C° 0.4 mm 8 mps 740 mmHg 80%
    16:00 +15°C° 0.4 mm 8 mps 739 mmHg 82%
    17:00 +15°C° 0.4 mm 8 mps 739 mmHg 85%
    18:00 +15°C° 1.2 mm 8 mps 739 mmHg 86%
    19:00 +15°C° 1.2 mm 8 mps 739 mmHg 88%
    20:00 +15°C° 1.2 mm 7 mps 739 mmHg 89%
    21:00 +15°C° 2.5 mm 7 mps 738 mmHg 91%
    22:00 +15°C° 2.5 mm 7 mps 737 mmHg 93%
    23:00 +14°C° 2.5 mm 7 mps 737 mmHg 95%
    Show more